Wind_Speed
33 32 31 30 29 27 27 26 25 26 25 24 24 25 25 24 23 23 24 25 25 24 23 22 22 21 19 19 17 17 18 18 17 18 18 18 16 15 14 15 15 14
35 33 32 31 30 29 29 28 26 26 26 26 25 24 25 24 24 24 25 25 25 25 24 23 23 23 22 20 20 20 19 19 18 18 19 19 18 17 16 16 16 16
36 35 34 32 31 32 31 29 28 27 26 27 26 24 24 24 25 25 25 26 26 25 24 24 24 24 24 22 22 22 21 21 21 19 20 21 20 19 18 17 17 17
38 37 36 34 32 32 32 30 29 28 26 26 27 26 24 23 24 26 26 26 26 25 25 25 24 24 25 23 23 23 22 22 23 21 21 22 21 20 19 18 18 18
41 39 37 35 33 32 32 31 31 30 29 27 27 27 26 25 24 25 27 27 26 26 26 26 26 25 25 25 24 24 23 22 23 23 22 23 23 22 21 20 20 19
40 39 37 35 34 33 32 33 33 32 31 29 27 26 27 28 26 25 26 27 27 26 26 26 27 27 27 26 26 26 24 23 23 24 24 24 24 24 22 21 21 22
38 39 38 36 34 33 33 33 33 32 31 29 28 28 28 29 29 28 26 26 27 27 27 27 28 28 28 28 28 28 27 24 23 25 26 25 25 25 24 23 23 24
39 39 39 37 35 34 34 33 32 32 31 29 29 29 29 29 29 30 29 27 27 28 29 28 29 29 29 29 30 30 29 27 25 26 27 27 26 27 26 25 24 25
39 38 38 37 35 33 34 33 32 32 33 31 30 29 30 30 29 29 30 30 29 29 30 30 30 31 31 30 31 31 31 30 28 27 29 29 28 28 28 27 26 26
39 37 36 36 34 33 33 32 31 31 32 33 32 29 29 31 30 29 30 31 31 30 30 31 31 32 32 32 32 32 32 31 30 29 30 31 30 29 29 28 28 27
39 36 35 35 34 33 32 33 31 29 30 32 33 31 29 30 31 31 30 32 33 32 31 32 32 32 33 33 32 32 33 33 31 30 30 31 32 31 30 30 29 29
38 36 35 35 35 34 33 33 32 30 30 30 31 32 31 30 31 32 32 32 33 33 33 32 33 33 33 34 33 32 32 32 32 31 31 31 32 32 31 31 31 30
38 38 36 36 37 36 34 33 33 32 31 30 30 31 31 30 30 32 33 33 33 34 34 33 34 34 34 35 34 32 31 32 31 31 31 31 31 32 32 32 32 32
39 39 38 38 38 37 36 33 33 33 33 32 31 31 31 31 30 31 32 33 34 34 34 34 34 35 35 35 35 33 32 32 32 31 31 31 31 32 32 33 33 33
38 38 38 38 37 37 37 36 34 34 34 33 32 31 31 30 30 30 30 32 33 34 34 35 35 36 37 36 37 36 34 33 34 34 32 32 32 32 32 33 33 33
37 37 36 37 37 36 37 37 36 34 34 34 34 33 31 31 31 30 30 31 32 33 34 36 36 37 39 40 40 40 38 35 34 35 34 33 33 32 33 33 34 33
35 36 35 35 36 36 36 38 37 36 35 35 35 35 33 32 32 32 32 31 31 33 34 36 37 38 40 43 44 43 41 38 35 35 35 35 34 34 34 34 34 34
34 35 35 35 36 36 36 37 37 37 36 35 35 35 34 33 33 34 34 32 31 32 33 35 37 38 40 43 45 45 44 41 37 35 35 36 36 36 35 35 34 35
33 34 34 35 36 36 35 35 36 37 37 35 34 34 35 35 35 35 35 35 34 33 34 34 35 36 39 42 45 46 46 44 39 36 37 37 38 37 37 36 36 35
33 33 33 34 34 34 33 33 34 35 35 34 33 33 35 35 35 35 35 36 36 35 34 34 34 34 36 40 43 46 47 46 42 38 38 38 39 40 39 38 38 37
32 31 31 32 32 32 32 33 33 33 33 33 32 32 34 34 34 34 34 34 36 35 33 32 33 34 35 38 42 44 47 48 46 41 38 38 38 39 40 40 40 39
31 30 30 31 31 31 32 32 32 32 31 32 31 30 31 31 32 32 32 32 32 33 34 34 33 33 35 38 40 43 45 48 49 45 39 37 37 37 39 40 40 39
30 29 29 30 30 30 32 32 31 31 30 31 31 29 28 29 30 31 31 31 31 32 35 36 34 33 34 36 38 41 45 48 50 47 42 39 38 36 36 38 39 40
29 28 29 30 30 30 30 30 29 29 29 29 30 29 28 27 27 28 29 30 32 32 34 35 34 33 34 35 35 38 43 48 49 47 43 41 39 37 35 35 37 39
28 27 28 29 29 29 28 27 27 27 27 27 28 28 27 26 26 26 27 28 30 30 31 32 32 31 33 35 36 36 40 46 48 45 42 40 37 36 36 35 36 37
27 27 27 27 27 28 27 27 26 25 25 25 25 25 25 26 26 25 25 25 26 27 28 30 30 29 30 33 34 36 38 43 44 41 40 38 35 33 34 35 35 35
Wind_Direction
198 199 200 202 205 206 206 204 202 202 203 204 203 204 205 204 203 203 204 207 208 207 207 209 208 208 208 207 204 199 200 200 200 199 195 197 198 193 197 202 207 215
199 200 201 202 205 207 207 206 204 204 205 205 205 205 206 206 204 204 205 205 207 207 207 207 208 207 206 206 205 201 200 200 200 201 199 199 200 196 198 204 207 212
199 200 200 202 204 206 207 207 207 207 207 207 207 206 205 206 205 206 206 205 205 206 206 206 207 208 206 204 205 203 201 202 201 202 202 201 202 201 199 203 210 212
198 200 201 202 204 206 206 207 208 208 209 209 209 208 206 206 206 206 207 206 205 204 204 205 205 206 206 204 205 204 203 204 203 203 205 204 203 205 202 202 209 213
199 201 202 202 203 205 205 206 208 208 209 210 209 209 208 207 205 205 206 207 206 204 203 204 204 205 206 204 204 204 205 206 205 204 205 206 205 206 206 204 206 213
200 201 202 202 203 203 204 206 208 209 210 210 209 208 208 208 206 204 205 206 206 205 204 204 204 204 205 204 203 205 206 206 206 205 205 206 207 207 208 208 207 211
199 201 202 203 203 204 204 207 208 209 209 209 210 209 208 208 208 207 205 205 205 205 205 204 204 203 204 204 204 205 207 208 208 207 207 207 207 207 208 210 210 211
198 200 202 203 203 204 205 207 207 209 209 209 209 210 209 209 209 209 207 206 205 206 206 205 205 204 203 204 205 206 206 208 208 208 209 208 208 209 209 209 211 212
198 199 200 201 201 202 204 205 207 209 210 209 209 210 211 210 210 209 208 208 207 207 206 206 206 206 205 204 206 207 207 208 209 209 209 209 209 210 210 210 210 212
198 197 197 198 199 200 202 204 206 208 209 210 210 211 211 211 211 209 209 209 208 208 208 207 207 206 206 206 207 208 210 210 209 209 209 210 212 212 212 211 210 211
198 197 196 197 198 200 203 204 204 206 207 209 210 211 211 211 210 209 209 209 209 209 209 208 208 208 207 208 209 210 212 213 212 212 211 211 213 214 214 214 213 213
199 199 199 198 200 202 203 204 205 206 206 206 207 209 210 210 209 209 209 210 210 210 210 210 209 209 209 209 210 211 212 214 215 215 215 214 214 215 216 216 216 216
200 201 201 200 202 204 205 205 206 207 207 206 206 207 209 210 209 209 209 210 211 211 212 212 210 210 211 211 211 212 212 213 215 216 217 217 217 216 216 217 218 218
201 202 203 203 204 205 206 206 207 208 208 208 207 206 209 211 211 210 209 210 211 212 212 213 213 212 212 212 211 211 212 213 214 215 216 217 218 218 217 217 218 219
200 202 204 206 205 205 206 207 208 209 210 209 209 207 209 211 213 212 210 209 210 212 212 212 214 213 212 212 210 210 212 214 214 215 216 217 217 217 217 217 218 219
199 202 204 206 206 205 206 207 208 209 210 211 211 211 210 210 212 214 214 211 209 210 211 212 214 215 214 213 211 210 211 213 214 215 216 217 217 217 217 218 219 220
199 201 203 205 206 206 206 206 207 208 210 211 212 212 211 210 210 212 214 214 210 209 211 213 215 217 216 215 214 213 212 212 213 214 215 217 218 218 218 219 220 222
199 199 202 204 206 206 206 206 207 208 210 211 211 212 211 211 210 211 213 215 213 210 211 214 217 219 218 217 216 215 214 212 213 214 215 217 219 219 220 220 221 222
198 199 201 204 205 206 206 205 206 208 210 211 211 211 211 211 212 211 213 215 216 214 213 215 219 220 219 218 218 217 216 214 213 214 216 218 219 220 221 222 223 223
198 199 202 204 204 204 205 205 206 208 209 210 211 211 211 212 213 213 213 214 216 217 217 217 219 220 220 220 219 219 218 217 216 217 218 220 221 221 222 223 224 224
197 199 201 203 203 202 203 205 207 208 208 208 210 210 212 213 214 214 215 216 217 220 222 223 223 222 223 222 221 220 220 219 219 220 221 222 223 223 223 224 225 226
196 198 199 202 202 201 203 205 206 207 207 207 209 212 214 215 216 217 218 218 219 220 224 227 228 226 225 225 223 221 220 220 220 221 224 226 226 226 225 226 227 227
195 196 198 200 200 201 203 205 205 206 206 207 209 212 215 216 217 219 221 221 222 222 224 228 230 230 230 230 227 222 220 219 220 221 224 228 230 229 229 229 229 228
194 196 198 199 201 202 203 203 204 205 207 207 208 210 214 216 217 220 221 222 223 224 225 229 231 232 233 235 233 226 221 219 220 221 223 229 232 232 233 234 233 231
195 198 199 200 202 202 202 201 202 204 206 207 208 210 214 216 216 218 220 222 224 226 228 230 231 232 234 236 237 233 225 221 219 220 223 228 232 234 236 237 237 236
197 200 200 201 202 203 202 202 201 201 203 204 207 209 213 216 218 219 221 222 224 226 230 231 231 232 234 236 238 236 231 224 219 219 224 228 231 234 237 238 239 239
Height
778 780 783 785 788 789 791 793 794 796 798 800 802 803 805 807 809 811 813 814 816 818 819 821 823 824 826 828 829 830 831 832 833 834 834 835 836 837 838 839 840 841
773 776 779 782 784 786 788 790 792 793 795 797 799 801 803 805 807 809 810 812 813 815 817 819 820 822 824 825 827 828 829 830 831 832 833 833 834 835 836 837 838 839
769 772 775 777 779 782 785 787 789 791 793 795 797 799 800 802 804 806 808 809 811 813 815 817 818 819 821 823 824 826 827 828 829 830 831 832 833 833 834 835 837 838
764 767 769 772 775 778 781 784 786 787 790 792 793 796 798 799 801 803 805 807 808 810 812 814 816 817 819 820 822 823 824 826 827 828 829 830 831 832 832 833 834 836
759 762 765 768 771 774 777 780 782 784 786 788 790 793 795 797 798 800 802 804 806 808 809 811 813 815 816 818 819 821 822 823 824 826 826 827 828 830 830 831 832 833
755 758 761 765 767 771 773 775 777 780 782 785 787 790 791 793 795 797 799 801 803 805 807 808 810 812 813 815 817 818 819 821 822 823 824 824 826 827 828 829 829 831
752 754 758 761 764 767 769 771 774 777 779 782 784 786 788 790 792 793 795 798 800 802 804 805 807 809 810 812 813 815 816 818 819 820 821 822 823 824 825 826 827 828
747 750 754 757 760 763 765 768 770 773 776 778 781 783 784 786 788 790 792 794 796 798 800 802 803 805 807 808 810 811 812 814 815 817 818 819 820 821 821 822 824 825
743 746 749 753 756 758 761 764 766 769 772 774 777 779 781 783 785 787 789 791 793 795 796 798 800 801 803 804 805 807 808 809 811 813 814 816 817 817 818 819 820 821
739 742 745 749 751 754 757 760 763 765 768 770 773 776 777 779 781 783 785 787 789 791 792 794 796 797 799 800 801 803 805 806 807 809 810 812 813 814 815 816 817 818
736 739 742 744 747 750 753 756 759 761 764 766 769 771 773 775 777 779 781 783 784 786 788 790 791 793 795 797 798 799 801 803 804 806 806 808 809 811 812 813 814 814
732 735 738 740 743 746 749 752 755 758 760 762 764 767 770 771 773 775 776 778 780 782 784 786 788 790 791 793 795 796 798 800 801 803 804 805 806 807 809 810 811 811
727 730 733 736 738 741 745 748 751 753 755 758 760 763 765 767 769 770 772 774 776 778 780 782 784 785 787 789 791 793 795 796 798 799 800 801 802 803 805 806 807 808
722 726 728 731 734 737 741 744 746 749 751 754 756 758 761 763 765 766 768 770 772 774 776 778 780 781 782 784 787 789 791 792 794 795 796 797 798 799 800 801 802 803
718 722 724 727 730 733 736 739 742 745 747 750 752 754 757 759 761 763 764 766 768 769 771 774 775 775 777 779 781 783 786 787 789 790 791 793 794 794 795 796 797 798
714 718 721 724 726 729 732 735 738 741 743 746 748 750 752 754 757 759 761 762 763 765 767 768 769 769 770 772 775 777 780 782 783 785 787 788 789 790 791 791 792 793
710 713 717 720 723 725 727 730 733 736 739 741 743 746 748 750 752 755 756 757 759 760 762 762 763 764 765 766 769 771 774 776 779 780 782 784 784 785 785 786 787 788
706 709 712 715 718 721 723 726 729 731 734 736 738 741 744 746 747 749 751 753 754 755 757 757 757 758 760 762 764 766 769 771 774 776 777 778 779 779 780 781 782 783
703 705 708 711 713 716 719 722 725 727 729 732 734 737 740 741 742 744 746 748 749 750 751 752 753 755 756 758 760 762 764 767 769 770 771 772 772 773 775 776 776 777
699 701 704 707 710 713 716 718 721 722 725 728 731 733 735 736 738 740 741 743 745 746 747 748 749 751 752 754 756 758 760 763 764 765 765 765 766 767 769 770 771 772
695 697 701 704 707 710 713 715 717 719 722 725 727 729 730 732 734 736 737 739 741 742 744 744 745 746 748 749 751 753 756 758 759 760 760 760 761 762 763 764 765 767
691 694 697 701 704 707 709 711 713 715 719 721 724 726 727 729 731 732 734 736 737 739 740 740 741 742 743 744 745 748 751 753 755 756 757 756 757 757 758 759 760 762
688 691 694 698 701 702 704 707 709 712 716 718 721 723 724 726 728 729 731 732 734 735 735 735 737 739 739 740 741 744 746 748 750 751 752 752 753 754 755 755 756 757
685 688 692 694 697 699 701 704 707 710 712 715 717 719 721 722 724 726 727 728 729 730 731 732 733 735 737 737 738 740 742 743 745 747 748 748 748 750 751 751 752 752
683 686 689 691 694 696 698 701 704 707 709 712 714 716 718 720 721 722 723 724 726 727 728 729 730 732 734 734 735 737 738 739 742 744 744 744 745 747 747 747 748 748
681 684 687 689 692 694 696 698 701 704 706 709 711 713 715 716 718 719 720 721 723 725 725 726 728 729 731 731 733 734 735 736 739 740 739 740 742 744 744 744 744 744